Vertical_Velocity
2 -0 0 -1 -0 1 1 -1 0 1 2 3 3 4 0 1 1 0 -0 1 0 1 1 0 0 1 1 1 2 -4 -2 -2 1 -0 -1 -2 -4 -4 -3 -4 -4 -1 1
1 1 0 -1 -1 -0 -1 0 1 0 0 2 3 2 2 2 1 1 -0 -1 -1 -2 -0 -0 -1 -0 1 0 -0 -4 -1 -1 1 -0 -0 -4 -9 1 -1 0 0 0 -0
0 0 0 -1 -1 -0 -0 -1 -0 0 -0 1 2 1 1 1 2 1 0 -0 -0 -0 -2 -1 -0 -0 -0 0 -0 -2 -1 -0 1 2 2 -2 2 -8 -1 -0 -1 -1 1
1 0 0 0 -0 -1 0 1 1 1 0 1 0 0 1 -0 -0 -1 -1 -1 -1 -1 -1 -2 -2 -1 -1 -0 -0 1 0 0 -0 -0 4 6 6 1 -9 -3 -2 2 0
1 0 -0 -0 -0 1 -0 0 -0 0 0 1 0 0 -0 -1 -0 0 -0 -1 -1 -1 -1 -1 -0 -1 -1 -2 -2 -1 -1 -1 -1 1 -4 -1 -0 3 3 -8 -10 -6 -2
0 -0 -0 0 -1 -1 1 -1 -0 -1 0 0 -1 -0 -0 0 1 -0 -0 -1 -1 -0 -1 -2 -2 -1 -0 0 -1 1 -0 0 1 -1 1 1 1 0 5 3 -1 -3 -7
0 0 -0 -1 -1 -1 -1 -1 -1 -1 -1 -1 -0 -1 -1 -1 -1 -1 -1 -0 -0 -0 -1 -1 -1 -1 -1 -0 -1 -0 -0 1 1 1 -0 2 3 1 2 4 1 3 -7
0 -0 -1 -1 -1 -1 -0 -0 0 0 -0 -0 -1 -1 -1 -2 -2 -2 -2 -1 -1 -2 -1 -1 -1 -1 -1 -1 -1 -1 -2 -1 -0 -1 0 1 2 1 4 1 1 -14 -3
0 -0 0 -1 -1 -1 -1 -1 -1 -1 -1 -1 -1 -1 -0 0 -0 -1 -1 -2 -2 -1 -2 -2 -1 -1 -1 -2 -1 -1 -1 -1 -0 -1 -1 -2 -0 1 1 3 5 7 -4
0 0 0 -0 -1 -1 -1 -1 -1 -2 -2 -2 -1 -2 -2 -1 -1 -1 -1 -1 -1 -1 -1 -1 -2 -1 -1 -1 -2 -0 -1 -1 -0 -1 -0 -0 -1 -1 0 -0 2 5 8
-0 -0 -0 -1 -0 -0 0 -0 -0 -0 -0 -0 -0 -0 -0 -1 -1 -2 -2 -2 -2 -1 -2 -2 -2 -2 -1 -1 -1 -1 -1 -1 -1 -0 -1 1 -1 0 -1 0 -0 -1 5
-0 -0 0 0 0 -0 -0 -0 -0 -1 -1 -1 -2 -1 -1 -1 -1 -1 -1 -2 -1 -2 -2 -2 -1 -2 -2 -1 -2 -1 -1 -2 -2 -1 -1 -1 -1 0 1 -1 -1 -0 1
-0 -1 -1 -1 -1 -1 -1 -1 -1 -1 -1 -1 -1 -1 -1 -1 -1 -1 -1 -2 -1 -2 -1 -3 -3 -2 -2 -1 -0 -1 -1 -1 -2 -2 -2 -2 -1 -1 -1 -0 -1 -0 1
-0 0 -0 -0 -1 -1 -1 -1 -2 -2 -1 -2 -2 -2 -2 -2 -2 -2 -2 -2 -2 -2 -1 -2 -3 -4 -3 -2 -1 -1 -1 -1 -1 -2 -1 -1 -1 -3 -3 -1 -0 -2 -3
-1 -0 1 -0 -3 -3 -2 -2 -2 -2 -1 -1 -2 -1 -1 -1 -1 -1 -1 -1 -1 -1 -2 -2 0 -1 -2 -1 -2 -1 -2 -1 -2 -2 -1 -0 -0 0 0 -1 -2 -0 -2
-0 -0 -3 -3 -2 -3 -2 -3 -3 -4 -3 -2 -2 -2 -2 -2 -3 -2 -2 -2 -2 -2 -2 -1 -4 -2 -2 -2 -1 -1 -1 -1 -3 -6 -2 -1 -1 1 1 1 1 2 -0
0 -0 -1 -1 0 1 1 1 2 0 -1 -1 0 -0 -1 -0 -0 -1 -1 -1 -1 -2 -2 -2 -3 -2 -1 -0 -2 -2 1 -5 -1 -2 -4 -4 0 -1 -1 -0 1 3 5
-1 -1 -0 -0 -1 -1 -1 -1 -2 -1 -2 -1 -1 -1 -2 -1 -1 -2 -2 -2 -3 -3 -4 -2 -2 -3 -2 -3 -2 -2 -2 -1 -1 -1 -1 -2 -5 1 -3 -5 -4 1 -0
-2 -1 -2 -2 -1 -2 -3 -2 -0 -1 -2 -1 -2 -2 -2 -2 -2 -2 -2 -0 -3 -2 -2 -3 -3 -3 -2 -2 -3 -3 -4 -5 -5 -4 -3 -2 -1 -5 -1 10 4 0 -4
0 -1 -2 -2 -2 0 -3 -3 -1 -2 -0 -2 -2 -1 -0 -1 -3 -2 -3 -2 -2 -3 -2 -1 -1 -2 -3 -1 -1 -2 -1 -3 -4 -4 -5 -7 -2 -2 -4 -3 -6 -5 -2
-3 -3 -2 -2 -0 0 -1 -2 -2 -1 -1 -2 -2 -2 -1 -1 -1 -2 -1 -1 -2 -1 -1 -3 -1 -1 -1 -3 -2 -2 -1 -2 -5 4 -1 -2 -7 -3 -3 -2 7 -2 2
-2 -2 -4 -4 -1 -2 -3 -3 -5 3 -0 -1 -2 -1 0 0 -1 -1 -2 -1 -2 -2 -2 -2 -2 -1 -0 0 -1 -2 -1 -1 4 -3 -3 -8 -10 6 15 20 -3 3 22
-0 1 -1 -1 2 3 2 -4 1 -0 -0 -2 -2 -2 -1 -0 1 -2 -2 -4 -1 -1 -2 -3 -4 -4 -1 -2 -1 -3 -1 -5 0 -2 -4 7 -1 -9 -16 -10 -0 -5 -12
-1 -0 -0 -1 -5 4 2 -1 -3 -1 -2 -3 -2 -1 -3 -2 -3 -1 -1 -1 -0 0 -1 -2 -2 -3 -3 -3 -3 -5 -8 -3 -5 -8 -4 -2 -3 0 0 -3 -2 -4 -2
-0 -1 -1 -2 -5 -2 -3 3 4 3 -3 -1 -2 -2 -2 -1 -1 2 1 -1 2 2 -1 -3 -3 -3 -4 -5 -7 5 19 5 11 27 10 2 1 -1 -2 -4 -6 -6 -7
0 -1 0 -1 -0 -1 -4 -2 0 0 -0 -2 -1 1 -3 -2 -1 -2 -6 9 1 1 1 1 8 7 0 2 1 -5 -1 -1 0 12 4 1 -0 -2 -4 -4 -3 -2 -5
Height
1568 1567 1565 1564 1563 1562 1560 1558 1557 1557 1557 1557 1558 1559 1559 1560 1561 1562 1562 1562 1562 1562 1562 1561 1561 1561 1561 1561 1561 1561 1561 1561 1561 1560 1560 1559 1559 1558 1558 1559 1561 1563 1564
1570 1568 1567 1566 1564 1563 1561 1560 1558 1557 1557 1557 1557 1558 1558 1559 1560 1560 1561 1562 1562 1562 1562 1561 1561 1561 1561 1560 1560 1560 1560 1561 1560 1560 1559 1557 1557 1556 1555 1556 1557 1559 1559
1571 1569 1567 1566 1566 1564 1562 1561 1560 1559 1558 1558 1558 1559 1559 1559 1560 1560 1560 1560 1561 1561 1561 1561 1561 1560 1560 1559 1559 1560 1560 1560 1560 1560 1561 1559 1556 1555 1553 1553 1554 1555 1555
1572 1571 1569 1568 1567 1566 1565 1564 1563 1562 1561 1560 1560 1560 1559 1559 1560 1560 1560 1560 1560 1560 1560 1561 1561 1560 1559 1559 1559 1559 1559 1559 1558 1559 1559 1559 1558 1556 1551 1551 1552 1552 1551
1573 1572 1571 1570 1569 1569 1567 1566 1565 1564 1563 1562 1561 1561 1560 1560 1561 1561 1561 1561 1560 1560 1559 1559 1559 1558 1558 1558 1557 1557 1557 1557 1557 1557 1556 1556 1555 1555 1553 1546 1546 1547 1548
1573 1573 1572 1572 1571 1570 1570 1568 1567 1566 1565 1564 1563 1562 1562 1562 1562 1561 1561 1560 1560 1559 1558 1558 1557 1557 1556 1555 1555 1554 1554 1554 1554 1555 1555 1554 1554 1552 1551 1546 1543 1541 1540
1573 1573 1573 1573 1573 1572 1571 1570 1569 1568 1567 1566 1565 1564 1564 1563 1562 1561 1560 1560 1559 1558 1557 1556 1556 1555 1554 1553 1552 1552 1551 1550 1550 1550 1551 1551 1550 1549 1547 1544 1541 1537 1534
1573 1573 1573 1573 1573 1573 1572 1571 1570 1570 1569 1567 1566 1565 1565 1564 1563 1562 1560 1559 1558 1556 1556 1555 1554 1553 1552 1551 1550 1549 1548 1548 1547 1545 1545 1545 1544 1544 1543 1540 1538 1532 1531
1572 1573 1573 1573 1574 1573 1573 1572 1571 1570 1569 1568 1567 1566 1565 1564 1563 1561 1560 1558 1557 1556 1555 1554 1552 1551 1550 1548 1547 1546 1545 1544 1543 1542 1541 1540 1539 1539 1537 1537 1535 1533 1526
1571 1572 1573 1573 1573 1573 1572 1571 1570 1570 1569 1568 1567 1566 1565 1563 1562 1560 1559 1557 1556 1555 1554 1552 1551 1549 1548 1546 1545 1543 1542 1540 1539 1537 1536 1535 1534 1533 1532 1531 1530 1529 1525
1570 1571 1572 1572 1573 1572 1572 1571 1570 1569 1568 1567 1566 1565 1563 1562 1560 1559 1557 1556 1554 1552 1551 1549 1548 1546 1544 1543 1541 1540 1538 1536 1535 1533 1532 1530 1529 1527 1526 1524 1523 1521 1520
1568 1570 1571 1571 1571 1571 1571 1570 1569 1568 1567 1566 1565 1564 1562 1560 1559 1557 1555 1553 1552 1550 1548 1546 1544 1542 1541 1539 1537 1536 1533 1531 1530 1527 1526 1525 1523 1522 1520 1518 1517 1515 1513
1567 1569 1570 1570 1570 1570 1569 1568 1567 1567 1566 1565 1563 1562 1560 1558 1556 1554 1552 1550 1548 1546 1544 1542 1540 1538 1536 1535 1533 1531 1529 1527 1525 1522 1520 1519 1517 1515 1514 1512 1510 1508 1506
1566 1567 1568 1569 1568 1568 1567 1567 1565 1564 1563 1561 1560 1558 1557 1555 1553 1551 1549 1546 1544 1542 1539 1537 1535 1533 1532 1530 1528 1526 1524 1522 1519 1517 1515 1513 1511 1509 1507 1505 1503 1501 1498
1563 1565 1566 1566 1566 1566 1564 1563 1562 1560 1559 1558 1557 1555 1553 1551 1549 1547 1544 1542 1539 1537 1535 1532 1530 1528 1526 1524 1522 1520 1517 1515 1512 1511 1510 1508 1506 1504 1502 1499 1496 1495 1493
1561 1562 1563 1564 1563 1562 1561 1560 1559 1557 1556 1554 1553 1550 1548 1546 1544 1543 1540 1537 1535 1533 1530 1528 1525 1523 1521 1519 1517 1514 1511 1508 1505 1503 1502 1500 1498 1497 1495 1493 1491 1491 1488
1558 1560 1561 1560 1559 1559 1557 1556 1554 1553 1551 1549 1548 1546 1544 1542 1540 1538 1535 1533 1531 1528 1525 1523 1520 1518 1516 1513 1510 1508 1505 1501 1499 1496 1494 1492 1491 1489 1487 1485 1485 1484 1483
1555 1557 1557 1557 1556 1555 1554 1551 1550 1549 1547 1546 1545 1543 1541 1538 1536 1534 1531 1529 1526 1523 1520 1517 1514 1512 1510 1507 1505 1502 1499 1496 1494 1491 1489 1486 1484 1482 1480 1479 1477 1475 1474
1553 1554 1554 1553 1552 1551 1550 1548 1547 1545 1544 1542 1540 1539 1536 1533 1531 1528 1526 1523 1520 1517 1514 1511 1508 1506 1504 1501 1498 1497 1494 1491 1488 1486 1484 1481 1479 1477 1477 1475 1471 1468 1465
1551 1551 1550 1549 1548 1547 1545 1544 1543 1541 1539 1537 1536 1533 1531 1528 1525 1522 1520 1517 1514 1511 1508 1505 1503 1500 1497 1495 1492 1492 1490 1486 1483 1482 1479 1478 1476 1473 1472 1469 1465 1461 1459
1547 1547 1545 1544 1544 1542 1540 1539 1537 1536 1534 1531 1529 1527 1525 1522 1519 1515 1513 1510 1507 1504 1501 1498 1496 1493 1491 1488 1486 1486 1485 1482 1478 1476 1473 1471 1470 1468 1466 1464 1460 1457 1454
1543 1542 1541 1540 1539 1537 1535 1533 1531 1530 1527 1524 1522 1520 1517 1515 1511 1508 1505 1502 1499 1496 1494 1491 1488 1486 1485 1483 1480 1479 1480 1478 1474 1471 1468 1465 1463 1462 1459 1456 1453 1451 1447
1538 1537 1536 1534 1534 1532 1529 1526 1525 1523 1520 1517 1514 1512 1509 1507 1504 1501 1497 1494 1492 1489 1486 1483 1480 1479 1478 1476 1475 1473 1472 1471 1469 1466 1462 1460 1457 1455 1451 1449 1447 1444 1441
1534 1533 1531 1528 1527 1525 1523 1520 1517 1515 1511 1507 1505 1502 1499 1497 1495 1492 1490 1487 1483 1481 1478 1476 1473 1472 1470 1469 1467 1466 1464 1463 1461 1458 1453 1450 1448 1447 1445 1442 1440 1438 1436
1529 1527 1525 1522 1519 1517 1515 1513 1509 1506 1502 1498 1495 1492 1490 1488 1485 1483 1480 1477 1475 1473 1469 1468 1467 1465 1462 1461 1461 1461 1459 1457 1454 1452 1446 1443 1440 1438 1436 1433 1431 1429 1426
1524 1522 1519 1515 1512 1509 1506 1504 1501 1497 1493 1488 1485 1482 1479 1476 1474 1471 1469 1470 1467 1467 1466 1465 1464 1461 1458 1457 1456 1455 1453 1451 1448 1445 1438 1435 1433 1430 1428 1425 1422 1419 1417